This is the latest recevied weather packets stored in our database for station/object KB7KFC-3. If no packets are shown the sender has not sent any weather packets the latest 10 day(s).
| Time | Temp. | Humidity | Pressure | Rain* | Wind** | Luminosity | Snow |
|---|---|---|---|---|---|---|---|
| 1777723623 | 17.78° C | 47% | 1012.5 hPa | 0 mm | - | - | - |
| 1777723443 | 17.78° C | 46% | 1012.4 hPa | 0 mm | - | - | - |
| 1777723263 | 17.78° C | 45% | 1012.4 hPa | 0 mm | - | - | - |
| 1777723084 | 17.78° C | 44% | 1012.4 hPa | 0 mm | - | - | - |
| 1777722905 | 17.78° C | 44% | 1012.4 hPa | 0 mm | - | - | - |
| 1777722724 | 17.78° C | 42% | 1012.4 hPa | 0 mm | - | - | - |
| 1777722543 | 17.78° C | 41% | 1012.3 hPa | 0 mm | - | - | - |
| 1777722363 | 17.78° C | 42% | 1012.3 hPa | 0 mm | - | - | - |
| 1777722184 | 17.78° C | 43% | 1012.2 hPa | 0 mm | - | - | - |
| 1777722005 | 17.78° C | 42% | 1012.2 hPa | 0 mm | - | - | - |
| 1777721824 | 17.78° C | 38% | 1012.3 hPa | 0 mm | - | - | - |
| 1777721644 | 18.33° C | 37% | 1012.2 hPa | 0 mm | - | - | - |
| 1777721463 | 18.33° C | 38% | 1012.2 hPa | 0 mm | - | - | - |
| 1777721284 | 18.33° C | 35% | 1012.2 hPa | 0 mm | - | - | - |
| 1777721105 | 18.33° C | 36% | 1012.2 hPa | 0 mm | - | - | - |
| 1777720925 | 18.33° C | 36% | 1012.2 hPa | 0 mm | - | - | - |
| 1777720744 | 18.33° C | 36% | 1012.3 hPa | 0 mm | - | - | - |
| 1777720565 | 18.33° C | 35% | 1012.2 hPa | 0 mm | - | - | - |
| 1777720383 | 18.89° C | 36% | 1012.2 hPa | 0 mm | - | - | - |
| 1777720204 | 18.89° C | 35% | 1012.2 hPa | 0 mm | - | - | - |
| 1777720024 | 18.89° C | 35% | 1012.2 hPa | 0 mm | - | - | - |
| 1777719844 | 18.89° C | 35% | 1012.4 hPa | 0 mm | - | - | - |
| 1777719663 | 19.44° C | 34% | 1012.2 hPa | 0 mm | - | - | - |
| 1777719484 | 19.44° C | 35% | 1012.2 hPa | 0 mm | - | - | - |
| 1777719304 | 19.44° C | 35% | 1012.2 hPa | 0 mm | - | - | - |
* Rain latest hour (hover to see other rain measurements)
** Current wind speed in m/s (hover to see current wind gust speed)